Waarnemingen

Advertentie
Mijn weer
Sveg A, Zweden (2327): temperatuur & dauwpunt: 16.07.2018 18:00:00 - 22.07.2018 18:00:00 (CEST)Sveg A, Zweden (2327): windsnelheid & windstoten: 16.07.2018 18:00:00 - 22.07.2018 18:00:00 (CEST)Sveg A, Zweden (2327): windrichting: 16.07.2018 18:00:00 - 22.07.2018 18:00:00 (CEST)Sveg A, Zweden (2327): luchtdruk: 16.07.2018 18:00:00 - 22.07.2018 18:00:00 (CEST)Sveg A, Zweden (2327): zicht: 16.07.2018 18:00:00 - 22.07.2018 18:00:00 (CEST)Sveg A, Zweden (2327): neerslag: 16.07.2018 18:00:00 - 22.07.2018 18:00:00 (CEST)
Datum & Tijd tt [°C] td [°C] ff [km/u] ff [kn] fx [km/u] fx [kn] dd ppp [hPa] vv [km] rr [mm]
22.07.2018 18:00:00 25,9 12,4 10 5 21 11 ZO 1002,8 35 0,0
22.07.2018 17:00:00 26,4 10,9 6 3 15 8 ZZO 1002,7 34 0,0
22.07.2018 16:00:00 26,2 12,3 7 4 13 7 ONO 1002,8 34 0,0
22.07.2018 15:00:00 24,9 12,1 9 5 20 11 OZO 1003,4 44 0,0
22.07.2018 14:00:00 24,0 12,9 7 4 16 9 O 1003,8 38 0,0
22.07.2018 13:00:00 22,6 13,6 8 5 18 10 O 1004,4 39 0,0
22.07.2018 12:00:00 20,7 13,4 6 3 13 7 O 1005,0 35 0,0
22.07.2018 11:00:00 20,1 14,2 3 2 14 8 ONO 1005,3 39 0,0
22.07.2018 10:00:00 19,8 14,8 4 2 10 5 NW 1005,7 39 0,0
22.07.2018 09:00:00 17,8 14,1 5 3 13 7 W 1006,1 35 0,0
22.07.2018 08:00:00 15,5 14,5 10 5 14 8 W 1006,3 24 0,0
22.07.2018 07:00:00 14,0 13,8 8 5 11 6 WZW 1006,4 23 0,0
22.07.2018 06:00:00 12,7 12,7 7 4 9 5 W 1006,8 7 0,0
22.07.2018 05:00:00 11,4 11,4 5 3 7 4 W 1007,0 0,3 0,0
22.07.2018 04:00:00 11,3 11,1 6 3 7 4 W 1007,2 0,2 0,0
22.07.2018 03:00:00 13,1 12,9 3 2 9 5 W 1006,9 11 0,2
22.07.2018 02:00:00 13,6 13,4 3 2 8 5 W 1006,9 15 0,1
22.07.2018 01:00:00 13,1 12,9 5 3 8 5 WNW 1007,3 9 0,0
22.07.2018 00:00:00 13,8 13,5 1 1 6 4 WZW 1007,1 9 0,0
21.07.2018 23:00:00 14,8 14,2 5 3 9 5 ZO 1006,5 18 0,0
21.07.2018 22:00:00 15,4 13,4 5 3 26 14 ZO 1006,5 44 0,0
21.07.2018 21:00:00 17,0 12,7 11 6 22 12 NNO 1006,1 39 0,0
21.07.2018 20:00:00 17,7 16,0 11 6 22 12 NNW 1005,7 22 0,1
21.07.2018 19:00:00 17,1 16,9 6 3 61 33 OZO 1005,4 14 14,9
21.07.2018 18:00:00 19,6 14,8 14 7 29 16 W 1005,4 34 0,0
21.07.2018 17:00:00 23,6 14,9 17 9 34 19 O 1003,7 40 0,0
21.07.2018 16:00:00 25,3 14,4 26 14 38 21 O 1003,5 10 0,0
21.07.2018 15:00:00 26,9 10,6 11 6 26 14 O 1003,5 31 0,0
21.07.2018 14:00:00 25,8 10,8 11 6 22 12 ZO 1004,2 35 0,0
21.07.2018 13:00:00 25,1 11,6 10 5 21 12 ZO 1004,8 35 0,0
21.07.2018 12:00:00 23,8 13,4 8 4 16 9 ZO 1005,6 36 0,0
21.07.2018 11:00:00 22,8 14,1 7 4 11 6 O 1006,1 37 0,0
21.07.2018 10:00:00 21,0 13,9 6 3 10 6 ZO 1006,6 38 0,0
21.07.2018 09:00:00 18,6 14,1 3 2 7 4 N 1007,3 25 0,0
21.07.2018 08:00:00 16,3 13,6 2 1 4 2 Z 1008,0 21 0,0
21.07.2018 07:00:00 14,1 13,0 2 1 5 3 ZO 1008,8 12 0,0
21.07.2018 06:00:00 10,3 10,3 1 1 4 2 N 1009,6 5 0,0
21.07.2018 05:00:00 8,4 8,3 3 1 5 3 NW 1010,0 0,1 0,0
21.07.2018 04:00:00 10,6 10,1 1 1 5 3 OZO 1009,7 3,0 0,0
21.07.2018 03:00:00 11,0 10,7 3 2 6 3 NW 1010,0 7 0,0
21.07.2018 02:00:00 13,2 12,6 2 1 8 5 N 1009,7 9 0,0
21.07.2018 01:00:00 11,6 11,0 9 5 13 7 WNW 1010,0 8 0,0
21.07.2018 00:00:00 13,9 12,1 3 1 10 5 NNO 1009,8 11 0,0
20.07.2018 23:00:00 17,0 14,1 8 5 10 6 O 1009,1 13 0,0
20.07.2018 22:00:00 20,5 14,2 8 4 13 7 ZO 1009,0 11 0,0
20.07.2018 21:00:00 21,4 13,6 4 2 7 4 O 1008,6 14 0,0
20.07.2018 20:00:00 24,8 12,1 4 2 10 6 ZO 1008,0 16 0,0
20.07.2018 19:00:00 26,2 11,2 5 3 16 8 ZO 1007,7 26 0,0
20.07.2018 18:00:00 25,6 12,8 11 6 19 10 ZZO 1008,0 31 0,0
20.07.2018 17:00:00 26,3 12,4 4 2 14 8 O 1008,3 34 0,0
20.07.2018 16:00:00 22,8 15,1 7 4 20 11 ZZO 1009,3 31 0,0
20.07.2018 15:00:00 23,7 14,9 15 8 31 17 NNO 1009,8 35 0,0
20.07.2018 14:00:00 26,4 13,2 9 5 15 8 W 1009,4 38 0,0
20.07.2018 13:00:00 24,6 13,8 6 3 16 9 W 1010,1 33 0,0
20.07.2018 12:00:00 23,1 14,1 5 3 11 6 NNW 1011,0 45 0,0
20.07.2018 11:00:00 21,2 14,1 6 3 13 7 NW 1011,9 37 0,0
20.07.2018 10:00:00 18,9 13,5 6 3 12 7 W 1012,6 47 0,0
20.07.2018 09:00:00 17,9 13,0 4 2 11 6 W 1013,1 50 0,0
20.07.2018 08:00:00 16,4 13,3 3 2 7 4 ZW 1013,6 44 0,0
20.07.2018 07:00:00 15,4 13,8 4 2 7 4 WZW 1013,8 50 0,0
20.07.2018 06:00:00 14,2 13,7 3 2 8 5 W 1014,1 30 0,1
20.07.2018 05:00:00 13,2 12,6 3 2 6 3 ZW 1014,4 36 0,0
20.07.2018 04:00:00 13,3 12,4 3 1 5 3 WZW 1014,7 41 0,0
20.07.2018 03:00:00 14,0 12,9 2 1 8 4 WNW 1014,8 49 0,0
20.07.2018 02:00:00 12,7 12,1 5 3 9 5 W 1015,2 37 0,0
20.07.2018 01:00:00 14,3 12,7 3 2 9 5 O 1015,3 50 0,0
20.07.2018 00:00:00 14,8 12,5 4 2 13 7 NW 1015,4 50 0,0
19.07.2018 23:00:00 18,3 13,4 9 5 16 8 NNO 1014,7 50 0,0
19.07.2018 22:00:00 19,6 13,1 11 6 15 8 NO 1014,4 49 0,0
19.07.2018 21:00:00 20,6 13,1 10 5 28 15 ONO 1013,9 50 0,0
19.07.2018 20:00:00 22,5 14,1 11 6 21 11 NNO 1013,3 49 0,0
19.07.2018 19:00:00 23,6 14,0 11 6 18 10 N 1012,9 45 0,0
19.07.2018 18:00:00 24,9 13,1 9 5 15 8 W 1012,7 42 0,0
19.07.2018 17:00:00 24,4 13,6 9 5 14 8 NNW 1013,1 48 0,0
19.07.2018 16:00:00 24,3 13,5 8 5 19 10 W 1013,3 40 0,0
19.07.2018 15:00:00 25,0 14,5 8 4 21 11 W 1013,6 41 0,0
19.07.2018 14:00:00 23,0 16,1 9 5 19 10 W 1014,2 36 0,0
19.07.2018 13:00:00 21,8 17,0 11 6 19 11 W 1014,8 31 0,0
19.07.2018 12:00:00 19,7 17,3 12 6 18 10 W 1015,2 24 0,0
19.07.2018 11:00:00 18,4 16,0 9 5 14 7 W 1015,3 25 0,0
19.07.2018 10:00:00 17,4 16,4 9 5 13 7 W 1015,4 19 0,0
19.07.2018 09:00:00 16,8 16,2 8 4 12 6 WZW 1015,8 13 0,0
19.07.2018 08:00:00 16,2 16,0 4 2 11 6 WZW 1015,8 10 0,0
19.07.2018 07:00:00 15,7 15,7 8 4 13 7 W 1015,7 5 0,1
19.07.2018 06:00:00 14,6 14,6 6 3 7 4 W 1015,6 2,9 0,0
19.07.2018 05:00:00 14,0 14,0 3 2 6 3 NW 1015,7 0,3 0,0
19.07.2018 04:00:00 14,3 14,3 2 1 7 4 N 1015,7 0,4 0,0
19.07.2018 03:00:00 15,0 15,0 2 1 6 3 ZO 1015,5 0,2 0,0
19.07.2018 02:00:00 15,3 15,1 3 2 5 3 Z 1015,3 0,4 0,0
19.07.2018 01:00:00 15,7 15,4 4 2 14 7 W 1015,4 10 0,0
19.07.2018 00:00:00 16,0 15,7 6 3 18 10 W 1015,6 11 0,0
18.07.2018 23:00:00 16,1 15,6 14 8 22 12 WNW 1015,0 15 4,9
18.07.2018 22:00:00 16,6 15,1 6 4 31 17 NW 1015,3 15 1,4
18.07.2018 21:00:00 19,6 13,5 13 7 27 15 Z 1014,9 15 0,0
18.07.2018 20:00:00 20,9 13,6 3 1 35 19 ZO 1013,0 8 0,0
18.07.2018 19:00:00 24,5 13,4 5 3 14 8 ONO 1012,2 45 0,0
18.07.2018 18:00:00 25,5 11,6 7 4 16 9 NO 1011,8 46 0,0
18.07.2018 17:00:00 22,8 12,4 9 5 39 21 WZW 1012,6 50 0,0
18.07.2018 16:00:00 26,0 8,9 19 10 53 29 Z 1012,2 50 0,0
18.07.2018 15:00:00 29,2 8,8 21 11 39 21 ZO 1011,2 47 0,0
18.07.2018 14:00:00 29,2 9,3 17 9 34 18 OZO 1011,8 13 0,0
18.07.2018 13:00:00 28,9 8,6 11 6 27 15 ZO 1012,3 10 0,0
18.07.2018 12:00:00 28,2 9,0 16 9 29 15 O 1012,9 9 0,0
18.07.2018 11:00:00 26,2 9,9 7 4 16 9 O 1014,0 5 0,0
18.07.2018 10:00:00 23,8 10,8 4 2 10 5 N 1014,8 3,7 0,0
18.07.2018 09:00:00 22,0 10,8 4 2 9 5 NNO 1015,4 1,7 0,0
18.07.2018 08:00:00 18,7 11,3 3 2 5 3 NNW 1016,1 2,7 0,0
18.07.2018 07:00:00 15,3 11,3 2 1 7 4 WNW 1017,0 11 0,0
18.07.2018 06:00:00 11,5 9,9 4 2 5 3 ONO 1017,5 25 0,0
18.07.2018 05:00:00 10,4 9,3 4 2 5 3 O 1017,6 25 0,0
18.07.2018 04:00:00 9,1 7,4 3 2 5 3 ZO 1018,0 31 0,0
18.07.2018 03:00:00 8,9 8,1 1 1 8 4 N 1018,1 20 0,0
18.07.2018 02:00:00 11,4 8,4 4 2 11 6 OZO 1017,8 47 0,0
18.07.2018 01:00:00 14,7 9,7 6 3 10 5 O 1017,2 50 0,0
18.07.2018 00:00:00 15,9 9,8 3 1 11 6 O 1016,8 50 0,0
17.07.2018 23:00:00 20,4 9,9 8 4 9 5 OZO 1015,8 50 0,0
17.07.2018 22:00:00 21,4 9,9 5 3 15 8 O 1015,5 50 0,0
17.07.2018 21:00:00 25,2 9,1 12 6 21 11 OZO 1014,4 45 0,0
17.07.2018 20:00:00 26,6 9,0 13 7 30 16 ZO 1014,1 28 0,0
17.07.2018 19:00:00 27,3 8,7 18 10 40 21 OZO 1013,7 50 0,0
17.07.2018 18:00:00 28,8 7,9 16 9 32 17 OZO 1013,4 46 0,0
17.07.2018 17:00:00 28,7 8,9 18 10 42 23 OZO 1013,5 45 0,0
17.07.2018 16:00:00 29,2 7,7 14 8 32 17 ZO 1013,6 39 0,0
17.07.2018 15:00:00 28,5 8,2 18 10 31 17 ZZO 1014,3 39 0,0
17.07.2018 14:00:00 29,2 7,7 14 7 41 22 ZZO 1014,5 44 0,0
17.07.2018 13:00:00 28,9 6,9 17 9 36 20 ZZO 1014,8 39 0,0
17.07.2018 12:00:00 27,8 6,0 20 11 35 19 OZO 1015,3 45 0,0
17.07.2018 11:00:00 27,0 8,9 15 8 26 14 ZO 1015,6 41 0,0
17.07.2018 10:00:00 25,5 10,5 10 6 18 10 ZO 1016,1 40 0,0
17.07.2018 09:00:00 23,2 10,6 9 5 16 8 OZO 1016,8 34 0,0
17.07.2018 08:00:00 20,4 11,1 6 3 12 6 ONO 1017,2 40 0,0
17.07.2018 07:00:00 18,4 10,7 4 2 8 4 O 1017,5 38 0,0
17.07.2018 06:00:00 15,3 10,3 2 1 5 3 ZO 1018,0 43 0,0
17.07.2018 05:00:00 13,2 10,2 3 2 7 4 ZZW 1018,2 39 0,0
17.07.2018 04:00:00 10,5 8,4 4 2 9 5 NW 1018,5 41 0,0
17.07.2018 03:00:00 13,2 8,1 2 1 14 7 O 1017,8 48 0,0
17.07.2018 02:00:00 16,1 9,5 10 5 13 7 O 1017,3 50 0,0
17.07.2018 01:00:00 18,1 9,7 10 5 12 7 NNO 1016,8 44 0,0
17.07.2018 00:00:00 20,2 9,1 9 5 16 9 O 1016,3 50 0,0
16.07.2018 23:00:00 22,3 8,8 10 6 23 13 OZO 1015,3 50 0,0
16.07.2018 22:00:00 24,7 8,6 14 7 22 12 ZZO 1014,3 50 0,0
16.07.2018 21:00:00 25,7 9,1 8 4 23 13 ZO 1013,6 50 0,0
16.07.2018 20:00:00 27,4 7,3 14 8 22 12 ZO 1013,0 46 0,0
16.07.2018 19:00:00 28,7 0,4 12 6 20 11 ZO 1012,7 41 0,0
16.07.2018 18:00:00 29,3 5,4 11 6 29 16 ZO 1012,6 41 0,0

tt = temperatuur
td = dauwpunt
ff = windsnelheid
fx = windstoten
dd = windrichting
ppp = luchtdruk
vv = zicht
rr = neerslag

Weerstations in de omgeving